Stations météo

Publicité
Threave, Grande-Bretagne (99090): Température de l'air & dewpoint: 12.01.2018 12:00:00 - 18.01.2018 12:00:00 (GMT)Threave, Grande-Bretagne (99090): Température de l'air -20cm & Température de l'air -100cm: 12.01.2018 12:00:00 - 18.01.2018 12:00:00 (GMT)Threave, Grande-Bretagne (99090): Quantités de précipitations: 12.01.2018 12:00:00 - 18.01.2018 12:00:00 (GMT)
Date & Time tt [°C] td [°C] tt -20cm [°C] tt -100cm [°C] rr [mm]
18.01.2018 12:00:00 - - - - -
18.01.2018 11:00:00 2,8 1,8 - - 0,0
18.01.2018 10:00:00 0,8 0,6 - - 0,0
18.01.2018 09:00:00 0,6 0,2 3,0 5,4 0,0
18.01.2018 08:00:00 0,7 0,3 - - 0,0
18.01.2018 07:00:00 0,0 -0,3 - - 0,0
18.01.2018 06:00:00 0,2 -0,1 - - 0,0
18.01.2018 05:00:00 0,4 0,0 - - 0,2
18.01.2018 04:00:00 0,9 0,6 - - 0,2
18.01.2018 03:00:00 0,8 0,5 - - 0,0
18.01.2018 02:00:00 0,4 0,3 - - 0,2
18.01.2018 01:00:00 0,2 0,0 - - 0,0
18.01.2018 00:00:00 0,2 -0,1 - - 0,0
17.01.2018 23:00:00 0,3 -0,2 - - 0,8
17.01.2018 22:00:00 1,2 0,4 - - 1,2
17.01.2018 21:00:00 2,2 1,1 - - 0,4
17.01.2018 20:00:00 3,3 1,8 - - 0,0
17.01.2018 19:00:00 3,3 1,7 - - 0,0
17.01.2018 18:00:00 3,3 1,6 - - 0,0
17.01.2018 17:00:00 3,4 1,6 - - 0,0
17.01.2018 16:00:00 3,2 1,2 - - 0,2
17.01.2018 15:00:00 3,5 1,7 - - 0,0
17.01.2018 14:00:00 3,5 1,3 - - 0,0
17.01.2018 13:00:00 3,3 1,3 - - 0,2
17.01.2018 12:00:00 3,0 1,2 - - 0,8
17.01.2018 11:00:00 2,7 1,4 - - 1,4
17.01.2018 10:00:00 1,9 0,5 - - 1,8
17.01.2018 09:00:00 2,4 0,5 3,0 5,5 0,0
17.01.2018 08:00:00 2,2 -1,4 - - 0,0
17.01.2018 07:00:00 2,1 -1,6 - - 0,2
17.01.2018 06:00:00 2,4 -1,0 - - 0,2
17.01.2018 05:00:00 1,7 0,2 - - 0,4
17.01.2018 04:00:00 1,3 0,1 - - 0,2
17.01.2018 03:00:00 0,4 0,1 - - 0,0
17.01.2018 02:00:00 0,9 0,1 - - 0,0
17.01.2018 01:00:00 0,6 0,0 - - 0,0
17.01.2018 00:00:00 0,3 -0,3 - - 0,2
16.01.2018 23:00:00 1,2 -0,8 - - 0,0
16.01.2018 22:00:00 0,8 -1,3 - - 0,0
16.01.2018 21:00:00 1,3 -1,2 - - 0,0
16.01.2018 20:00:00 0,8 -0,3 - - 0,0
16.01.2018 19:00:00 0,9 -0,3 - - 0,0
16.01.2018 18:00:00 1,0 -0,5 - - 0,0
16.01.2018 17:00:00 1,3 -0,6 - - 0,0
16.01.2018 16:00:00 1,7 -0,3 - - 0,0
16.01.2018 15:00:00 2,1 0,0 - - 0,0
16.01.2018 14:00:00 2,3 0,3 - - 0,0
16.01.2018 13:00:00 2,8 0,6 - - 0,2
16.01.2018 12:00:00 2,2 1,0 - - 0,2
16.01.2018 11:00:00 2,5 0,1 - - 0,0
16.01.2018 10:00:00 2,2 0,5 - - 0,0
16.01.2018 09:00:00 1,5 0,3 3,4 5,5 0,2
16.01.2018 08:00:00 1,6 0,4 - - 0,0
16.01.2018 07:00:00 2,3 0,2 - - 0,2
16.01.2018 06:00:00 1,8 0,3 - - 0,2
16.01.2018 05:00:00 2,1 0,3 - - 0,8
16.01.2018 04:00:00 1,8 0,3 - - 0,4
16.01.2018 03:00:00 0,6 0,1 - - 0,6
16.01.2018 02:00:00 1,9 0,1 - - 0,4
16.01.2018 01:00:00 2,0 1,0 - - 0,4
16.01.2018 00:00:00 1,1 0,4 - - 1,0
15.01.2018 23:00:00 2,7 1,2 - - 0,2
15.01.2018 22:00:00 3,3 1,9 - - 0,0
15.01.2018 21:00:00 2,6 1,2 - - 0,4
15.01.2018 20:00:00 4,1 2,0 - - 0,0
15.01.2018 19:00:00 4,0 1,6 - - 0,0
15.01.2018 18:00:00 4,2 2,5 - - 0,0
15.01.2018 17:00:00 3,6 2,8 - - 0,8
15.01.2018 16:00:00 4,8 3,2 - - 0,2
15.01.2018 15:00:00 4,7 2,5 - - 0,0
15.01.2018 14:00:00 4,6 3,4 - - 1,0
15.01.2018 13:00:00 6,6 4,6 - - 0,2
15.01.2018 12:00:00 6,8 4,2 - - 0,0
15.01.2018 11:00:00 7,0 5,0 - - 0,0
15.01.2018 10:00:00 6,1 4,5 - - 0,0
15.01.2018 09:00:00 6,6 5,6 3,4 5,5 0,0
15.01.2018 08:00:00 6,9 6,1 - - 0,2
15.01.2018 07:00:00 7,4 6,7 - - 0,2
15.01.2018 06:00:00 7,3 6,8 - - 0,0
15.01.2018 05:00:00 7,2 6,8 - - 0,0
15.01.2018 04:00:00 7,8 7,4 - - 0,2
15.01.2018 03:00:00 8,2 7,8 - - 0,0
15.01.2018 02:00:00 8,2 7,9 - - 0,2
15.01.2018 01:00:00 8,1 7,9 - - 0,6
15.01.2018 00:00:00 7,6 7,3 - - 3,0
14.01.2018 23:00:00 7,0 6,6 - - 4,0
14.01.2018 22:00:00 6,3 5,7 - - 5,2
14.01.2018 21:00:00 6,6 5,9 - - 4,0
14.01.2018 20:00:00 6,3 5,8 - - 2,8
14.01.2018 19:00:00 6,2 5,5 - - 2,8
14.01.2018 18:00:00 6,1 4,9 - - 0,2
14.01.2018 17:00:00 6,0 4,8 - - 0,0
14.01.2018 16:00:00 5,1 4,0 - - 0,0
14.01.2018 15:00:00 4,8 3,9 - - 0,0
14.01.2018 14:00:00 4,2 3,4 - - 0,2
14.01.2018 13:00:00 4,1 3,2 - - 0,2
14.01.2018 12:00:00 3,9 3,0 - - 0,4
14.01.2018 11:00:00 4,0 3,1 - - 0,2
14.01.2018 10:00:00 4,0 2,9 - - 0,0
14.01.2018 09:00:00 3,9 2,8 2,4 5,2 0,0
14.01.2018 08:00:00 3,8 2,8 - - 0,2
14.01.2018 07:00:00 3,9 2,9 - - 0,0
14.01.2018 06:00:00 4,2 3,1 - - 0,6
14.01.2018 05:00:00 4,5 3,1 - - 0,8
14.01.2018 04:00:00 4,7 3,1 - - 0,2
14.01.2018 03:00:00 5,0 3,3 - - 0,2
14.01.2018 02:00:00 5,3 3,3 - - -
14.01.2018 01:00:00 5,5 3,4 - - 0,0
14.01.2018 00:00:00 5,6 3,9 - - 0,0
13.01.2018 23:00:00 5,9 3,8 - - 0,0
13.01.2018 22:00:00 5,7 4,1 - - 0,2
13.01.2018 21:00:00 5,5 4,1 - - 0,6
13.01.2018 20:00:00 5,3 4,2 - - 1,0
13.01.2018 19:00:00 5,3 4,1 - - 1,6
13.01.2018 18:00:00 5,3 3,9 - - 1,6
13.01.2018 17:00:00 5,2 3,7 - - 0,8
13.01.2018 16:00:00 5,2 3,5 - - 0,8
13.01.2018 15:00:00 5,3 3,4 - - 0,8
13.01.2018 14:00:00 5,3 3,3 - - 1,8
13.01.2018 13:00:00 5,7 2,6 - - 0,0
13.01.2018 12:00:00 6,0 2,2 - - 0,0
13.01.2018 11:00:00 5,9 2,3 - - 0,0
13.01.2018 10:00:00 5,7 2,2 - - 0,0
13.01.2018 09:00:00 5,5 2,0 2,0 5,4 0,0
13.01.2018 08:00:00 5,5 2,3 - - 0,0
13.01.2018 07:00:00 5,5 2,4 - - 0,0
13.01.2018 06:00:00 5,6 2,7 - - 0,0
13.01.2018 05:00:00 5,6 2,9 - - 0,0
13.01.2018 04:00:00 5,3 2,5 - - 0,0
13.01.2018 03:00:00 5,6 2,7 - - 0,0
13.01.2018 02:00:00 5,7 2,4 - - 0,0
13.01.2018 01:00:00 4,5 2,3 - - 0,0
13.01.2018 00:00:00 3,1 1,0 - - 0,0
12.01.2018 23:00:00 3,5 0,8 - - 0,0
12.01.2018 22:00:00 2,9 0,9 - - 0,0
12.01.2018 21:00:00 3,8 1,0 - - 0,0
12.01.2018 20:00:00 4,9 1,0 - - 0,0
12.01.2018 19:00:00 5,2 1,4 - - 0,0
12.01.2018 18:00:00 5,0 1,3 - - 0,0
12.01.2018 17:00:00 5,2 1,4 - - 0,0
12.01.2018 16:00:00 5,1 1,7 - - 0,0
12.01.2018 15:00:00 6,2 2,4 - - 0,0
12.01.2018 14:00:00 6,2 2,7 - - 0,0
12.01.2018 13:00:00 - - - - 0,0
12.01.2018 12:00:00 5,8 3,8 - - 0,0

tt = Température de l'air
td = dewpoint
tt -20cm = Température de l'air -20cm
tt -100cm = Température de l'air -100cm
rr = Quantités de précipitations

stations d'obs. à proximité

  • TOP-25 (most viewed):